Time,TemperatureF,DewpointF,PressureIn,WindDirection,WindDirectionDegrees,WindSpeedMPH,WindSpeedGustMPH,Humidity,HourlyPrecipIn,Conditions,Clouds,dailyrainin,SoftwareType,DateUTC
2013-02-08 00:14:00,34.9,28.0,30.17,NE,44,8.0,10.0,75,0.00,,,0.00,weatherlink.com 1.10,2013-02-08 05:14:00,
2013-02-08 00:29:00,35.0,28.0,30.16,ENE,59,10.0,11.0,75,0.00,,,0.00,weatherlink.com 1.10,2013-02-08 05:29:00,
2013-02-08 00:44:00,35.0,28.0,30.15,NE,53,5.0,13.0,75,0.00,,,0.00,weatherlink.com 1.10,2013-02-08 05:44:00,
2013-02-08 00:59:00,34.8,28.0,30.13,NNE,29,5.0,6.0,76,0.00,,,0.00,weatherlink.com 1.10,2013-02-08 05:59:00,
2013-02-08 01:14:00,34.7,28.0,30.13,NNE,27,7.0,7.0,76,0.00,,,0.00,weatherlink.com 1.10,2013-02-08 06:14:00,
2013-02-08 01:30:00,34.9,28.0,30.13,NE,41,2.0,7.0,77,0.00,,,0.00,weatherlink.com 1.10,2013-02-08 06:30:00,
2013-02-08 01:45:00,35.1,29.0,30.12,ENE,60,6.0,8.0,77,0.00,,,0.00,weatherlink.com 1.10,2013-02-08 06:45:00,
2013-02-08 02:00:00,35.2,29.0,30.11,NE,53,5.0,9.0,77,0.00,,,0.00,weatherlink.com 1.10,2013-02-08 07:00:00,
2013-02-08 02:15:00,34.9,29.0,30.10,North,6,5.0,7.0,78,0.00,,,0.00,weatherlink.com 1.10,2013-02-08 07:15:00,
2013-02-08 02:30:00,34.5,29.0,30.09,NNE,23,4.0,5.0,80,0.00,,,0.00,weatherlink.com 1.10,2013-02-08 07:30:00,
2013-02-08 02:45:00,34.4,29.0,30.08,NE,41,4.0,6.0,82,0.01,,,0.01,weatherlink.com 1.10,2013-02-08 07:45:00,
2013-02-08 03:00:00,34.1,30.0,30.07,NNE,31,4.0,7.0,84,0.03,,,0.03,weatherlink.com 1.10,2013-02-08 08:00:00,
2013-02-08 03:15:00,33.9,30.0,30.06,NNE,20,5.0,8.0,86,0.04,,,0.04,weatherlink.com 1.10,2013-02-08 08:15:00,
2013-02-08 03:30:00,33.7,31.0,30.05,NNE,30,4.0,7.0,88,0.04,,,0.04,weatherlink.com 1.10,2013-02-08 08:30:00,
2013-02-08 03:45:00,33.8,31.0,30.04,North,10,3.0,6.0,88,0.03,,,0.04,weatherlink.com 1.10,2013-02-08 08:45:00,
2013-02-08 04:00:00,34.0,31.0,30.03,ENE,65,2.0,5.0,89,0.02,,,0.05,weatherlink.com 1.10,2013-02-08 09:00:00,
2013-02-08 04:15:00,34.1,32.0,30.03,NNE,15,1.0,5.0,90,0.03,,,0.07,weatherlink.com 1.10,2013-02-08 09:15:00,
2013-02-08 04:30:00,34.2,32.0,30.02,NNE,26,3.0,4.0,91,0.04,,,0.08,weatherlink.com 1.10,2013-02-08 09:30:00,
2013-02-08 04:45:00,34.4,32.0,30.02,North,5,2.0,4.0,91,0.05,,,0.09,weatherlink.com 1.10,2013-02-08 09:45:00,
2013-02-08 05:00:00,34.5,32.0,30.01,NNW,332,4.0,5.0,91,0.04,,,0.09,weatherlink.com 1.10,2013-02-08 10:00:00,
2013-02-08 05:15:00,34.6,33.0,29.99,NW,321,6.0,8.0,92,0.03,,,0.10,weatherlink.com 1.10,2013-02-08 10:15:00,
2013-02-08 05:30:00,34.5,33.0,29.98,NW,325,6.0,9.0,92,0.02,,,0.10,weatherlink.com 1.10,2013-02-08 10:30:00,
2013-02-08 05:45:00,34.6,33.0,29.98,NW,312,5.0,7.0,92,0.02,,,0.11,weatherlink.com 1.10,2013-02-08 10:45:00,
2013-02-08 06:00:00,34.7,33.0,29.97,NW,322,6.0,9.0,93,0.03,,,0.13,weatherlink.com 1.10,2013-02-08 11:00:00,
2013-02-08 06:15:00,34.8,33.0,29.96,NW,312,6.0,8.0,93,0.05,,,0.15,weatherlink.com 1.10,2013-02-08 11:15:00,
2013-02-08 06:30:00,34.9,33.0,29.96,NNW,328,8.0,10.0,93,0.07,,,0.17,weatherlink.com 1.10,2013-02-08 11:30:00,
2013-02-08 06:45:00,35.0,34.0,29.95,NW,316,6.0,9.0,94,0.08,,,0.19,weatherlink.com 1.10,2013-02-08 11:45:00,
2013-02-08 07:00:00,35.1,34.0,29.94,NNW,335,6.0,11.0,94,0.08,,,0.21,weatherlink.com 1.10,2013-02-08 12:00:00,
2013-02-08 07:15:00,35.3,34.0,29.94,NNW,341,7.0,11.0,94,0.09,,,0.24,weatherlink.com 1.10,2013-02-08 12:15:00,
2013-02-08 07:31:00,35.5,34.0,29.93,NNW,347,9.0,11.0,94,0.09,,,0.26,weatherlink.com 1.10,2013-02-08 12:31:00,
2013-02-08 07:46:00,35.8,35.0,29.92,North,354,3.0,12.0,95,0.10,,,0.29,weatherlink.com 1.10,2013-02-08 12:46:00,
2013-02-08 08:01:00,36.1,35.0,29.91,NNE,17,6.0,7.0,95,0.11,,,0.32,weatherlink.com 1.10,2013-02-08 13:01:00,
2013-02-08 08:16:00,36.3,35.0,29.90,NNE,22,6.0,9.0,95,0.10,,,0.34,weatherlink.com 1.10,2013-02-08 13:16:00,
2013-02-08 08:31:00,36.5,35.0,29.89,North,359,11.0,11.0,95,0.10,,,0.36,weatherlink.com 1.10,2013-02-08 13:31:00,
2013-02-08 08:46:00,36.9,36.0,29.88,North,356,7.0,13.0,95,0.08,,,0.37,weatherlink.com 1.10,2013-02-08 13:46:00,
2013-02-08 09:01:00,37.2,36.0,29.86,North,5,13.0,14.0,96,0.06,,,0.38,weatherlink.com 1.10,2013-02-08 14:01:00,
2013-02-08 09:16:00,37.6,37.0,29.85,NNE,15,13.0,17.0,96,0.04,,,0.38,weatherlink.com 1.10,2013-02-08 14:16:00,
2013-02-08 09:31:00,38.1,37.0,29.83,NNE,15,11.0,15.0,96,0.03,,,0.39,weatherlink.com 1.10,2013-02-08 14:31:00,
2013-02-08 09:46:00,38.5,38.0,29.82,North,8,12.0,17.0,96,0.02,,,0.39,weatherlink.com 1.10,2013-02-08 14:46:00,
2013-02-08 10:01:00,39.0,38.0,29.81,North,10,14.0,14.0,96,0.02,,,0.40,weatherlink.com 1.10,2013-02-08 15:01:00,
2013-02-08 10:16:00,39.4,38.0,29.80,NNE,15,15.0,19.0,96,0.02,,,0.40,weatherlink.com 1.10,2013-02-08 15:16:00,
2013-02-08 10:31:00,39.6,39.0,29.80,NNW,335,10.0,17.0,96,0.01,,,0.40,weatherlink.com 1.10,2013-02-08 15:31:00,
2013-02-08 10:46:00,39.8,39.0,29.80,NNW,330,11.0,17.0,96,0.01,,,0.40,weatherlink.com 1.10,2013-02-08 15:46:00,
2013-02-08 11:01:00,39.8,39.0,29.79,NNW,348,12.0,19.0,95,0.00,,,0.40,weatherlink.com 1.10,2013-02-08 16:01:00,
2013-02-08 11:16:00,39.8,39.0,29.78,North,354,9.0,18.0,95,0.00,,,0.40,weatherlink.com 1.10,2013-02-08 16:16:00,
2013-02-08 11:31:00,39.9,39.0,29.77,NNW,339,15.0,18.0,95,0.00,,,0.40,weatherlink.com 1.10,2013-02-08 16:31:00,
2013-02-08 11:46:00,40.0,39.0,29.76,NNE,22,12.0,17.0,95,0.00,,,0.40,weatherlink.com 1.10,2013-02-08 16:46:00,
2013-02-08 12:02:00,40.3,39.0,29.75,North,4,9.0,14.0,95,0.00,,,0.40,weatherlink.com 1.10,2013-02-08 17:02:00,
2013-02-08 12:16:00,40.4,39.0,29.75,NNW,347,10.0,16.0,95,0.00,,,0.40,weatherlink.com 1.10,2013-02-08 17:16:00,
2013-02-08 12:32:00,40.5,39.0,29.73,NNE,13,12.0,15.0,94,0.00,,,0.40,weatherlink.com 1.10,2013-02-08 17:32:00,
2013-02-08 12:47:00,40.4,39.0,29.73,NW,322,8.0,17.0,95,0.00,,,0.40,weatherlink.com 1.10,2013-02-08 17:47:00,
2013-02-08 13:02:00,40.3,39.0,29.72,North,354,14.0,18.0,95,0.00,,,0.40,weatherlink.com 1.10,2013-02-08 18:02:00,
2013-02-08 13:17:00,40.4,39.0,29.71,NNW,334,11.0,19.0,94,0.00,,,0.40,weatherlink.com 1.10,2013-02-08 18:17:00,
2013-02-08 13:32:00,40.5,39.0,29.71,NW,318,8.0,17.0,94,0.00,,,0.40,weatherlink.com 1.10,2013-02-08 18:32:00,
2013-02-08 13:47:00,40.4,39.0,29.70,NW,320,9.0,18.0,94,0.00,,,0.40,weatherlink.com 1.10,2013-02-08 18:47:00,
2013-02-08 14:02:00,40.3,39.0,29.70,NW,316,12.0,18.0,95,0.00,,,0.40,weatherlink.com 1.10,2013-02-08 19:02:00,
2013-02-08 14:17:00,40.2,39.0,29.69,North,3,11.0,17.0,95,0.00,,,0.40,weatherlink.com 1.10,2013-02-08 19:17:00,
2013-02-08 14:32:00,40.6,39.0,29.67,NNW,328,8.0,16.0,94,0.00,,,0.40,weatherlink.com 1.10,2013-02-08 19:32:00,
2013-02-08 14:47:00,40.8,39.0,29.68,NW,311,14.0,18.0,93,0.00,,,0.40,weatherlink.com 1.10,2013-02-08 19:47:00,
2013-02-08 15:02:00,40.9,39.0,29.69,WNW,297,9.0,19.0,92,0.00,,,0.40,weatherlink.com 1.10,2013-02-08 20:02:00,
2013-02-08 15:17:00,40.7,39.0,29.69,NNW,338,7.0,15.0,92,0.00,,,0.40,weatherlink.com 1.10,2013-02-08 20:17:00,
2013-02-08 15:32:00,40.9,39.0,29.70,NW,307,8.0,15.0,92,0.00,,,0.40,weatherlink.com 1.10,2013-02-08 20:32:00,
2013-02-08 15:47:00,40.8,39.0,29.69,NNW,339,8.0,15.0,92,0.00,,,0.40,weatherlink.com 1.10,2013-02-08 20:47:00,
2013-02-08 16:02:00,40.7,39.0,29.70,NNW,335,7.0,13.0,92,0.00,,,0.40,weatherlink.com 1.10,2013-02-08 21:02:00,
2013-02-08 16:17:00,40.9,39.0,29.70,WNW,298,9.0,11.0,91,0.00,,,0.40,weatherlink.com 1.10,2013-02-08 21:17:00,
2013-02-08 16:32:00,41.0,39.0,29.70,NW,308,8.0,14.0,91,0.00,,,0.40,weatherlink.com 1.10,2013-02-08 21:32:00,
2013-02-08 16:47:00,40.7,39.0,29.71,NW,304,11.0,14.0,92,0.01,,,0.41,weatherlink.com 1.10,2013-02-08 21:47:00,
2013-02-08 17:02:00,40.5,39.0,29.71,NW,307,8.0,13.0,93,0.01,,,0.41,weatherlink.com 1.10,2013-02-08 22:02:00,
2013-02-08 17:17:00,40.3,38.0,29.71,WNW,292,11.0,17.0,92,0.01,,,0.41,weatherlink.com 1.10,2013-02-08 22:17:00,
2013-02-08 17:32:00,39.8,38.0,29.71,NW,317,9.0,17.0,92,0.01,,,0.41,weatherlink.com 1.10,2013-02-08 22:32:00,
2013-02-08 17:47:00,39.3,37.0,29.72,WNW,292,11.0,15.0,92,0.00,,,0.41,weatherlink.com 1.10,2013-02-08 22:47:00,
2013-02-08 18:02:00,39.1,37.0,29.72,WNW,283,10.0,18.0,91,0.00,,,0.41,weatherlink.com 1.10,2013-02-08 23:02:00,
2013-02-08 18:17:00,39.1,37.0,29.73,WNW,291,12.0,18.0,91,0.00,,,0.41,weatherlink.com 1.10,2013-02-08 23:17:00,
2013-02-08 18:32:00,39.1,37.0,29.73,WNW,287,13.0,17.0,90,0.00,,,0.41,weatherlink.com 1.10,2013-02-08 23:32:00,
2013-02-08 18:47:00,39.2,37.0,29.73,WNW,297,11.0,17.0,90,0.00,,,0.41,weatherlink.com 1.10,2013-02-08 23:47:00,
2013-02-08 19:02:00,39.3,37.0,29.74,WNW,290,7.0,14.0,90,0.00,,,0.41,weatherlink.com 1.10,2013-02-09 00:02:00,
2013-02-08 19:17:00,39.3,37.0,29.74,WNW,291,7.0,12.0,90,0.00,,,0.41,weatherlink.com 1.10,2013-02-09 00:17:00,
2013-02-08 19:32:00,39.9,37.0,29.74,West,280,8.0,19.0,88,0.00,,,0.41,weatherlink.com 1.10,2013-02-09 00:32:00,
2013-02-08 19:47:00,40.6,37.0,29.75,WNW,294,9.0,19.0,85,0.00,,,0.41,weatherlink.com 1.10,2013-02-09 00:47:00,
2013-02-08 20:02:00,40.9,36.0,29.74,WNW,294,14.0,25.0,83,0.00,,,0.41,weatherlink.com 1.10,2013-02-09 01:02:00,
2013-02-08 20:17:00,40.9,36.0,29.75,WNW,293,20.0,21.0,81,0.00,,,0.41,weatherlink.com 1.10,2013-02-09 01:17:00,
2013-02-08 20:32:00,41.0,35.0,29.75,WNW,290,10.0,23.0,80,0.00,,,0.41,weatherlink.com 1.10,2013-02-09 01:32:00,
2013-02-08 20:47:00,41.2,34.0,29.75,WNW,290,16.0,25.0,75,0.00,,,0.41,weatherlink.com 1.10,2013-02-09 01:47:00,
2013-02-08 21:02:00,41.1,32.0,29.76,WNW,297,19.0,32.0,69,0.01,,,0.42,weatherlink.com 1.10,2013-02-09 02:02:00,
2013-02-08 21:17:00,40.7,30.0,29.77,WNW,297,23.0,33.0,67,0.01,,,0.42,weatherlink.com 1.10,2013-02-09 02:17:00,
2013-02-08 21:32:00,40.3,30.0,29.77,WNW,293,23.0,31.0,66,0.01,,,0.42,weatherlink.com 1.10,2013-02-09 02:32:00,
2013-02-08 21:47:00,39.8,29.0,29.78,WNW,294,19.0,30.0,66,0.00,,,0.42,weatherlink.com 1.10,2013-02-09 02:47:00,
2013-02-08 22:02:00,39.3,28.0,29.79,WNW,295,17.0,32.0,64,0.00,,,0.42,weatherlink.com 1.10,2013-02-09 03:02:00,
2013-02-08 22:17:00,38.9,28.0,29.80,WNW,287,19.0,27.0,66,0.00,,,0.42,weatherlink.com 1.10,2013-02-09 03:17:00,
2013-02-08 22:32:00,38.6,28.0,29.80,WNW,295,18.0,33.0,65,0.00,,,0.42,weatherlink.com 1.10,2013-02-09 03:32:00,
2013-02-08 22:47:00,38.2,28.0,29.81,West,280,9.0,23.0,66,0.00,,,0.42,weatherlink.com 1.10,2013-02-09 03:47:00,
2013-02-08 23:02:00,37.8,27.0,29.81,WNW,285,15.0,30.0,66,0.00,,,0.42,weatherlink.com 1.10,2013-02-09 04:02:00,
2013-02-08 23:17:00,37.3,26.0,29.81,WNW,298,16.0,30.0,65,0.00,,,0.42,weatherlink.com 1.10,2013-02-09 04:17:00,
2013-02-08 23:32:00,36.8,25.0,29.82,WNW,287,21.0,29.0,63,0.00,,,0.42,weatherlink.com 1.10,2013-02-09 04:32:00,
2013-02-08 23:47:00,36.4,25.0,29.83,WNW,298,23.0,38.0,63,0.00,,,0.42,weatherlink.com 1.10,2013-02-09 04:47:00,